Weather History for Bennington, VT

Change the Weather History Date:

Tuesday, February 19, 2013

  Actual Average Record
Temperature  
Mean Temperature 29 °F 26 °F  
Max Temperature 45 °F 36 °F 39 °F (2014)
Min Temperature 12 °F 16 °F 10 °F (2014)
Degree Days  
Heating Degree Days 36 39  
Month to date heating degree days 795 779  
Since 1 July heating degree days 4483 4910  
Cooling Degree Days 0 0  
Month to date cooling degree days 0 0  
Year to date cooling degree days 0 0  
Moisture  
Dew Point 23 °F    
Average Humidity 61    
Maximum Humidity 85    
Minimum Humidity 37    
Precipitation  
Precipitation 0.32 in 0.08 in 0.09 in (2014)
Month to date precipitation 0.73 1.40  
Year to date precipitation 2.18 4.15  
Sea Level Pressure  
Sea Level Pressure 29.79 in    
Wind  
Wind Speed 5 mph (SSW)    
Max Wind Speed 24 mph    
Max Gust Speed 36 mph    
Visibility 8 miles    
Events Rain , Snow    
T = Trace of Precipitation, MM = Missing Value Source: NWS Daily Summary

Daily Weather History Graph

Daily Weather History Graph

Search for Another Location

Airport:

Trip Planner

Search our weather history database for the weather conditions in past years. The results will help you decide how hot, cold, wet, or windy it might be!

Date:

Astronomy

Feb. 19, 2013 Rise Set
Actual Time 6:44 AM EST 5:30 PM EST
Civil Twilight 6:15 AM EST 5:58 PM EST
Nautical Twilight 5:42 AM EST 6:31 PM EST
Astronomical Twilight 5:09 AM EST 7:04 PM EST
Moon 11:54 AM EST 2:18 AM EST
Length of Visible Light 11h 43m
Length of Day
10h 45m
Waxing Gibbous, 67% of the Moon is Illuminated
Feb 19
Waxing Gibbous
Feb 25
Full
Mar 4
Last Quarter
Mar 11
New
Mar 19
First Quarter

Hourly Weather History & Observations

Time (EST) Temp. Windchill Dew Point Humidity Pressure Visibility Wind Dir Wind Speed Gust Speed Precip Events Conditions
12:54 AM 16.0 °F - 3.9 °F 59% 30.16 in 10.0 mi Calm Calm - N/A   Clear
1:54 AM 15.1 °F - 6.1 °F 68% 30.15 in 10.0 mi Calm Calm - N/A   Mostly Cloudy
2:54 AM 17.1 °F - 7.0 °F 65% 30.12 in 10.0 mi Calm Calm - N/A   Overcast
3:54 AM 19.0 °F - 7.0 °F 59% 30.10 in 10.0 mi Calm Calm - N/A   Overcast
4:54 AM 18.0 °F - 9.0 °F 68% 30.07 in 10.0 mi Calm Calm - N/A   Partly Cloudy
5:54 AM 17.1 °F - 8.1 °F 68% 30.05 in 10.0 mi Calm Calm - N/A   Scattered Clouds
6:54 AM 17.1 °F - 7.0 °F 65% 30.02 in 10.0 mi Calm Calm - N/A   Clear
7:54 AM 21.9 °F - 8.1 °F 55% 30.01 in 10.0 mi Calm Calm - N/A   Clear
8:54 AM 28.0 °F - 9.0 °F 45% 29.98 in 10.0 mi Calm Calm - N/A   Clear
9:54 AM 37.0 °F - 14.0 °F 39% 29.93 in 10.0 mi Calm Calm - N/A   Clear
10:54 AM 45.0 °F 42.6 °F 19.0 °F 36% 29.90 in 10.0 mi SSW 4.6 mph - N/A   Clear
11:54 AM 44.1 °F 38.1 °F 19.9 °F 38% 29.87 in 10.0 mi South 11.5 mph 25.3 mph N/A   Clear
1:54 PM 45.0 °F 38.9 °F 19.9 °F 37% 29.78 in 10.0 mi SSE 12.7 mph 35.7 mph N/A   Overcast
2:54 PM 42.1 °F 33.9 °F 26.1 °F 53% 29.77 in 10.0 mi South 17.3 mph 26.5 mph N/A   Overcast
3:54 PM 39.9 °F 31.1 °F 30.9 °F 70% 29.73 in 10.0 mi South 17.3 mph 24.2 mph N/A   Overcast
4:36 PM 39.2 °F 30.5 °F 32.0 °F 75% 29.68 in 10.0 mi South 16.1 mph 21.9 mph 0.00 in Rain Light Rain
4:54 PM 39.0 °F 31.8 °F 32.0 °F 76% 29.70 in 10.0 mi South 11.5 mph 23.0 mph 0.00 in Rain Light Rain
5:54 PM 37.9 °F 30.9 °F 33.1 °F 83% 29.68 in 10.0 mi South 10.4 mph 19.6 mph 0.02 in Rain Light Rain
6:19 PM 37.4 °F 34.9 °F 33.8 °F 87% 29.66 in 9.0 mi Variable 3.5 mph 17.3 mph 0.01 in Rain Light Rain
7:31 PM 37.4 °F - 33.8 °F 87% 29.63 in 9.0 mi Calm Calm - 0.02 in Rain Light Rain
7:54 PM 37.9 °F - 33.1 °F 83% 29.65 in 10.0 mi Calm Calm - 0.02 in Rain Light Rain
8:54 PM 37.0 °F 34.5 °F 33.1 °F 86% 29.64 in 6.0 mi SW 3.5 mph - 0.07 in Rain Light Rain
9:12 PM 37.4 °F - 33.8 °F 87% 29.61 in 5.0 mi Calm Calm - 0.03 in Rain Light Rain
9:54 PM 35.1 °F 32.2 °F 32.0 °F 89% 29.63 in 5.0 mi SSW 3.5 mph - 0.10 in Snow Light Snow
10:11 PM 35.6 °F - 32.0 °F 87% 29.61 in 8.0 mi Calm Calm - 0.01 in Rain Light Rain
10:54 PM 34.0 °F 31.0 °F 32.0 °F 92% 29.60 in 4.0 mi Variable 3.5 mph - 0.02 in Rain Light Rain
11:01 PM 33.8 °F - 32.0 °F 93% 29.59 in 4.0 mi Calm Calm - 0.01 in Rain Light Rain
11:15 PM 33.8 °F 30.8 °F 32.0 °F 93% 29.59 in 2.5 mi NNW 3.5 mph - 0.02 in Rain Light Rain
11:21 PM 33.8 °F 30.8 °F 30.2 °F 87% 29.59 in 0.8 mi NNW 3.5 mph - 0.03 in Snow Light Snow
11:35 PM 33.8 °F 27.7 °F 30.2 °F 87% 29.60 in 0.8 mi WSW 6.9 mph - 0.05 in Snow Light Snow
11:42 PM 33.8 °F 24.8 °F 30.2 °F 87% 29.60 in 1.5 mi West 12.7 mph 18.4 mph 0.06 in Snow Light Snow
11:54 PM 33.1 °F 25.5 °F 30.0 °F 89% 29.62 in 0.8 mi West 9.2 mph 25.3 mph 0.06 in Snow Light Snow